Regional Weather Roundup
Issued by NWS

Home | Current Version | Previous Version | Graphics & Text | Print | Product List | Glossary On
Versions: 1 2 3 4 5 6 7 8 9 10 11 12 13 14 15 16 17 18 19 20 21 22 23 24 25 26 27 28 29 30 31 32 33 34 35 36 37 38 39 40 41 42 43 44 45 46 47 48 49 50
590
ASUS44 KJAN 232310
RWRMS

MISSISSIPPI HOURLY WEATHER ROUNDUP
NATIONAL WEATHER SERVICE JACKSON MS
600 PM CDT TUE SEP 23 2014

NOTE: "FAIR: INDICATES FEW OR NO CLOUDS BELOW 12,000 FEET WITH NO
SIGNIFICANT WEATHER AND/OR OBSTRUCTIONS TO VISIBILITY.

MSZ001>002-007>008-010>013-018>021-025>028-034>036-240000-
NORTHWEST MISSISSIPPI

CITY           SKY/WX    TMP DP  RH WIND       PRES   REMARKS
CLARKSDALE     FAIR      79  46  31 NE7       30.13S
CLEVELAND      FAIR      80  46  30 E8        30.10S
GREENWOOD      SUNNY     80  56  43 N6        30.10F
GREENVILLE     SUNNY     83  35  18 E7        30.09S
GRENADA        FAIR      77  54  44 N6        30.11F
OLIVE BRANCH   MOSUNNY   75  43  31 NE8       30.16R
OXFORD         FAIR      75  52  43 NE6       30.15S
TUNICA         CLEAR     77  43  29 NE9       30.14S
$$

MSZ003>006-009-014>017-022>024-029>033-037>039-240000-
NORTHEAST MISSISSIPPI

CITY           SKY/WX    TMP DP  RH WIND       PRES   REMARKS
COLUMBUS AFB   CLEAR     81  55  41 NE6       30.11S
CORINTH        FAIR      77  50  38 N6        30.14S
GOLDN TRIANGLE CLEAR     81  54  39 NE7       30.11S
STARKVILLE     FAIR      81  54  39 NE8       30.10F
TUPELO         CLEAR     78  56  46 NE8       30.13S
$$

MSZ040-058-240000-
CENTRAL MISSISSIPPI

CITY           SKY/WX    TMP DP  RH WIND       PRES   REMARKS
JACKSON INTL   SUNNY     81  53  37 NE6       30.08F
JACKSON HAWKNS SUNNY     81  52  36 VRB6      30.09S
MERIDIAN KEY   CLEAR     82  50  32 NE9       30.08S
MERIDIAN NAS   CLEAR     83  51  33 N6        30.08S
RAYMOND        FAIR      81  75  83 CALM      30.09S
VICKSBURG      SUNNY     81  51  35 N8        30.08F
$$

MSZ059>079-240000-
SOUTH MISSISSIPPI

CITY           SKY/WX    TMP DP  RH WIND       PRES   REMARKS
BROOKHAVEN     FAIR      81  54  39 NE3       30.09S
COLUMBIA       FAIR      81  57  44 E5        30.05S
HATTIESBURG    SUNNY     83  55  38 NE5       30.06S
MCCOMB         SUNNY     83  50  31 NE3       30.06F
NATCHEZ        SUNNY     77  55  47 N7        30.08S
PINE BELT      SUNNY    N/A N/A N/A NE9       30.08S
$$

MSZ080>082-240000-
COASTAL MISSISSIPPI

CITY           SKY/WX    TMP DP  RH WIND       PRES   REMARKS
BAY ST LOUIS   SUNNY     82  48  30 NE6       30.03F
BILOXI         SUNNY     83  57  40 E9        30.03S
PASCAGOULA     CLEAR     81  51  35 NE7       30.03S
GULFPORT       SUNNY     81  61  50 SE6       30.02S
$$



USA.gov is the U.S. government's official web portal to all federal, state and local government web resources and services.